Temp
-6 -6 -6 -6 -6 -6 -6 -6 -6 -6 -6 -6 -6 -6 -6 -6 -6 -6 -6 -6 -6 -6 -6 -6 -6 -6 -6 -6 -6 -6 -6 -6 -6 -6 -6 -6 -6 -6 -6 -6 -6 -6 -6 -6 -6 -6 -6 -6 -6 -6 -6 -6 -6 -6 -6 -6 -7 -7 -7 -7 -7 -7 -7 -7 -7 -7 -7 -7 -7 -7 -7 -7 -7 -7
-6 -6 -6 -6 -6 -6 -6 -6 -6 -6 -6 -6 -6 -6 -6 -6 -6 -6 -6 -6 -6 -6 -6 -6 -6 -6 -6 -6 -6 -6 -6 -6 -6 -6 -6 -6 -6 -6 -6 -6 -6 -6 -6 -6 -6 -6 -6 -6 -6 -6 -6 -6 -6 -6 -6 -6 -6 -7 -7 -7 -7 -7 -7 -7 -7 -7 -7 -7 -7 -7 -7 -7 -7 -7
-6 -6 -6 -6 -6 -6 -6 -6 -6 -6 -6 -6 -6 -6 -6 -6 -6 -6 -6 -5 -5 -6 -6 -6 -6 -6 -6 -6 -6 -6 -6 -6 -6 -6 -6 -6 -6 -5 -6 -6 -6 -6 -6 -6 -6 -6 -6 -6 -6 -6 -6 -6 -6 -6 -6 -6 -7 -7 -7 -7 -7 -7 -7 -7 -7 -7 -7 -7 -7 -7 -7 -7 -7 -7
-6 -6 -6 -6 -6 -6 -6 -6 -6 -6 -6 -6 -6 -6 -6 -6 -6 -6 -6 -5 -5 -5 -6 -6 -6 -5 -5 -5 -5 -6 -6 -6 -6 -5 -5 -5 -5 -5 -5 -6 -6 -6 -6 -6 -6 -6 -6 -6 -6 -6 -6 -6 -6 -6 -6 -6 -6 -7 -7 -7 -7 -7 -7 -7 -7 -7 -7 -7 -7 -7 -7 -7 -7 -8
-6 -6 -6 -6 -6 -6 -6 -6 -6 -6 -6 -6 -6 -6 -6 -6 -6 -6 -6 -5 -5 -5 -6 -6 -6 -6 -6 -5 -5 -5 -6 -6 -6 -5 -5 -5 -5 -5 -5 -6 -6 -6 -6 -6 -6 -6 -6 -6 -6 -6 -6 -6 -6 -6 -6 -6 -7 -7 -7 -7 -7 -7 -7 -7 -7 -7 -7 -7 -7 -8 -8 -8 -8 -8
-6 -6 -6 -6 -6 -6 -6 -6 -6 -6 -6 -6 -6 -6 -6 -6 -6 -6 -6 -6 -5 -5 -5 -6 -6 -6 -6 -6 -6 -6 -5 -5 -5 -5 -5 -5 -5 -5 -6 -6 -6 -6 -6 -6 -6 -6 -6 -7 -7 -7 -7 -7 -7 -7 -7 -7 -7 -7 -7 -7 -7 -7 -7 -7 -7 -7 -7 -8 -8 -8 -8 -8 -8 -8
-6 -6 -6 -6 -6 -6 -6 -6 -6 -6 -6 -6 -6 -6 -6 -6 -6 -6 -6 -6 -6 -5 -5 -6 -6 -6 -6 -6 -6 -6 -5 -5 -5 -5 -5 -6 -6 -6 -6 -6 -6 -6 -6 -6 -7 -7 -7 -7 -7 -7 -7 -7 -7 -7 -7 -7 -7 -7 -7 -7 -7 -7 -8 -8 -8 -8 -8 -8 -8 -8 -8 -8 -8 -8
-6 -6 -6 -6 -6 -6 -6 -6 -6 -6 -6 -6 -6 -6 -6 -6 -6 -6 -6 -6 -6 -6 -6 -6 -6 -6 -6 -6 -6 -6 -6 -6 -6 -6 -6 -6 -6 -6 -6 -6 -6 -6 -6 -6 -6 -7 -7 -7 -7 -7 -7 -7 -7 -7 -7 -7 -7 -7 -8 -8 -8 -8 -8 -8 -8 -8 -8 -8 -8 -8 -8 -8 -8 -8
-6 -6 -6 -6 -6 -6 -6 -6 -6 -6 -6 -6 -6 -6 -6 -6 -6 -6 -6 -6 -6 -6 -6 -6 -6 -6 -6 -6 -6 -6 -6 -6 -6 -6 -6 -6 -6 -6 -6 -6 -6 -6 -6 -6 -7 -7 -7 -7 -7 -7 -7 -7 -7 -7 -7 -7 -7 -7 -8 -8 -8 -8 -8 -8 -8 -8 -8 -8 -8 -8 -9 -9 -9 -9
-6 -6 -6 -6 -6 -6 -6 -6 -6 -6 -6 -6 -6 -6 -6 -6 -6 -6 -6 -6 -6 -6 -6 -6 -6 -6 -6 -6 -6 -6 -6 -6 -6 -6 -6 -6 -6 -7 -7 -7 -7 -7 -7 -7 -7 -7 -7 -7 -7 -7 -7 -7 -7 -7 -7 -7 -7 -8 -8 -8 -8 -8 -8 -8 -8 -8 -8 -8 -8 -8 -9 -9 -9 -9
-6 -6 -6 -6 -6 -6 -6 -6 -6 -6 -6 -6 -6 -6 -6 -6 -6 -6 -6 -6 -6 -6 -6 -6 -6 -6 -6 -6 -6 -6 -6 -6 -6 -6 -7 -7 -6 -6 -7 -7 -7 -7 -7 -7 -7 -7 -7 -7 -7 -7 -8 -8 -8 -8 -8 -8 -8 -8 -8 -8 -8 -8 -8 -8 -9 -9 -9 -9 -9 -9 -9 -9 -9 -9
-6 -6 -6 -6 -6 -6 -6 -6 -6 -6 -6 -6 -6 -6 -6 -6 -6 -6 -6 -6 -6 -6 -6 -7 -7 -7 -7 -7 -6 -6 -6 -6 -6 -6 -6 -6 -6 -6 -7 -7 -6 -7 -7 -7 -7 -7 -7 -7 -7 -7 -7 -7 -7 -8 -8 -8 -8 -8 -8 -8 -8 -8 -8 -9 -9 -9 -9 -9 -9 -9 -9 -9 -9 -9
-6 -6 -6 -6 -6 -6 -6 -6 -6 -6 -6 -6 -6 -6 -6 -6 -6 -6 -6 -6 -6 -6 -7 -7 -7 -7 -7 -6 -6 -6 -6 -6 -6 -6 -6 -6 -6 -6 -7 -6 -6 -6 -6 -7 -7 -7 -7 -7 -7 -7 -7 -7 -8 -8 -8 -8 -8 -8 -8 -8 -8 -8 -8 -9 -9 -9 -9 -9 -9 -9 -9 -9 -9 -9
-6 -6 -6 -6 -6 -6 -6 -6 -6 -6 -6 -6 -6 -6 -6 -6 -6 -6 -6 -6 -6 -6 -7 -7 -7 -7 -7 -6 -6 -6 -6 -6 -6 -6 -6 -6 -6 -6 -7 -7 -6 -6 -6 -7 -7 -7 -7 -7 -7 -7 -7 -7 -7 -8 -8 -8 -8 -8 -8 -8 -8 -8 -8 -9 -9 -9 -9 -9 -9 -9 -9 -9 -9 -9
-6 -6 -6 -6 -6 -6 -6 -6 -6 -6 -6 -6 -6 -6 -6 -6 -6 -6 -6 -6 -6 -6 -6 -6 -7 -7 -7 -6 -6 -6 -6 -6 -6 -6 -6 -6 -6 -6 -7 -7 -6 -6 -6 -7 -7 -7 -7 -7 -7 -7 -7 -7 -7 -7 -8 -8 -8 -8 -8 -8 -8 -8 -8 -9 -9 -9 -9 -9 -9 -9 -9 -9 -9 -9
-6 -6 -6 -6 -6 -6 -6 -6 -6 -6 -6 -6 -6 -6 -6 -6 -6 -6 -6 -6 -6 -6 -6 -6 -6 -6 -6 -6 -6 -6 -6 -6 -6 -6 -6 -6 -6 -7 -7 -7 -6 -6 -6 -7 -7 -7 -7 -7 -7 -7 -7 -7 -7 -7 -7 -8 -8 -8 -8 -8 -8 -8 -8 -8 -9 -9 -9 -9 -9 -9 -9 -9 -10 -10
-7 -6 -6 -6 -6 -6 -6 -6 -6 -6 -6 -6 -6 -6 -6 -6 -6 -6 -6 -6 -6 -6 -6 -6 -6 -6 -6 -6 -6 -6 -6 -6 -6 -6 -6 -6 -7 -7 -7 -7 -7 -7 -7 -7 -7 -7 -7 -7 -7 -7 -7 -7 -7 -7 -7 -7 -8 -8 -8 -8 -8 -8 -8 -8 -8 -9 -9 -9 -9 -9 -9 -9 -10 -10
-7 -6 -6 -6 -6 -6 -6 -6 -6 -6 -6 -7 -6 -6 -6 -6 -6 -6 -6 -6 -6 -6 -6 -6 -6 -6 -6 -6 -6 -6 -6 -6 -7 -7 -7 -7 -7 -7 -7 -7 -7 -7 -7 -7 -7 -7 -7 -7 -7 -7 -7 -7 -7 -7 -7 -7 -7 -8 -8 -8 -8 -8 -8 -8 -8 -9 -9 -9 -9 -9 -9 -9 -9 -9
-7 -7 -6 -6 -6 -6 -6 -6 -6 -6 -6 -6 -6 -6 -6 -6 -6 -6 -6 -6 -6 -6 -6 -6 -6 -6 -6 -6 -6 -6 -6 -7 -7 -7 -7 -7 -6 -6 -7 -7 -7 -7 -7 -7 -7 -7 -7 -7 -7 -7 -7 -6 -6 -7 -7 -7 -7 -7 -7 -8 -8 -8 -8 -8 -9 -9 -9 -9 -9 -9 -9 -9 -9 -9
-7 -6 -6 -6 -6 -6 -6 -6 -6 -6 -6 -6 -6 -6 -6 -6 -6 -6 -6 -6 -6 -6 -6 -6 -6 -6 -6 -6 -6 -6 -6 -6 -6 -6 -6 -6 -6 -7 -7 -7 -6 -6 -6 -6 -6 -7 -7 -7 -7 -6 -6 -6 -6 -7 -7 -7 -7 -7 -7 -8 -8 -8 -8 -8 -9 -9 -9 -9 -9 -9 -9 -9 -9 -9
-6 -6 -6 -6 -6 -6 -6 -6 -6 -6 -6 -6 -6 -6 -6 -6 -6 -6 -6 -6 -6 -6 -6 -6 -6 -6 -6 -6 -6 -6 -6 -6 -6 -6 -6 -6 -6 -6 -6 -6 -6 -6 -6 -6 -6 -7 -7 -7 -6 -6 -6 -6 -6 -7 -7 -7 -7 -7 -7 -7 -8 -8 -8 -8 -8 -8 -9 -9 -9 -9 -9 -9 -10 -10
-6 -6 -6 -6 -6 -6 -6 -6 -6 -6 -6 -6 -6 -6 -6 -6 -6 -6 -6 -6 -6 -6 -6 -6 -6 -6 -6 -6 -6 -6 -6 -6 -6 -6 -6 -6 -6 -6 -6 -6 -6 -6 -6 -6 -6 -6 -6 -6 -6 -6 -6 -6 -6 -7 -7 -6 -6 -7 -7 -7 -7 -7 -7 -8 -8 -8 -8 -9 -9 -9 -9 -9 -9 -10
-6 -6 -6 -6 -6 -6 -6 -6 -6 -6 -6 -6 -6 -6 -6 -6 -6 -6 -6 -6 -6 -6 -6 -6 -6 -6 -6 -6 -6 -6 -6 -6 -6 -6 -6 -6 -6 -6 -6 -6 -6 -6 -6 -6 -6 -6 -6 -6 -6 -6 -6 -6 -6 -6 -6 -6 -6 -6 -7 -7 -7 -7 -7 -7 -8 -8 -8 -9 -9 -9 -9 -9 -9 -9
-7 -7 -7 -7 -6 -6 -6 -6 -6 -6 -6 -6 -6 -6 -6 -6 -6 -6 -6 -6 -6 -6 -6 -6 -6 -6 -6 -6 -6 -6 -6 -6 -6 -6 -6 -6 -6 -6 -6 -6 -6 -6 -6 -6 -6 -6 -6 -6 -6 -6 -6 -6 -6 -6 -6 -6 -6 -7 -7 -7 -7 -7 -7 -7 -8 -8 -8 -8 -8 -9 -9 -9 -9 -9
-7 -7 -7 -7 -6 -6 -6 -6 -6 -6 -6 -6 -7 -6 -6 -6 -6 -6 -6 -6 -6 -6 -6 -6 -6 -6 -6 -6 -6 -6 -6 -6 -6 -6 -6 -6 -6 -6 -6 -6 -6 -6 -6 -6 -6 -6 -6 -6 -6 -6 -6 -6 -6 -6 -6 -6 -7 -7 -7 -7 -7 -7 -7 -7 -8 -8 -8 -8 -8 -9 -9 -9 -9 -10
-7 -7 -7 -7 -7 -7 -7 -7 -7 -7 -7 -7 -6 -6 -6 -6 -6 -6 -6 -6 -6 -6 -6 -6 -6 -6 -6 -6 -6 -6 -6 -6 -6 -6 -6 -6 -6 -6 -6 -6 -6 -6 -6 -6 -6 -6 -6 -6 -6 -6 -6 -6 -6 -6 -6 -7 -7 -7 -7 -7 -7 -7 -7 -7 -8 -8 -8 -8 -8 -9 -9 -9 -9 -9
-7 -7 -7 -7 -7 -7 -7 -7 -7 -7 -7 -7 -6 -6 -6 -6 -6 -6 -6 -6 -6 -6 -6 -6 -6 -6 -6 -6 -6 -6 -7 -7 -7 -7 -7 -6 -6 -6 -6 -6 -6 -6 -6 -6 -6 -6 -6 -6 -6 -6 -6 -6 -6 -6 -7 -7 -7 -7 -7 -7 -7 -7 -7 -7 -8 -8 -8 -8 -8 -9 -9 -9 -9 -9
-7 -7 -7 -7 -7 -7 -7 -7 -7 -7 -7 -7 -7 -6 -6 -6 -6 -6 -6 -6 -6 -6 -6 -6 -6 -6 -6 -6 -6 -7 -7 -7 -7 -7 -7 -7 -7 -6 -6 -6 -6 -6 -6 -7 -7 -7 -7 -7 -7 -7 -7 -7 -7 -7 -7 -7 -7 -7 -7 -7 -7 -7 -7 -8 -8 -8 -8 -8 -8 -8 -9 -9 -9 -9
-7 -7 -7 -7 -7 -7 -7 -7 -7 -7 -7 -7 -7 -7 -7 -7 -7 -7 -6 -7 -7 -7 -7 -7 -7 -7 -7 -7 -7 -7 -7 -7 -7 -7 -7 -7 -7 -7 -7 -7 -7 -7 -7 -7 -7 -7 -7 -7 -7 -7 -7 -7 -7 -7 -7 -7 -7 -7 -7 -7 -7 -7 -7 -8 -8 -8 -8 -8 -8 -9 -9 -9 -9 -9
-7 -8 -8 -7 -7 -7 -7 -7 -7 -7 -7 -7 -7 -7 -7 -7 -7 -7 -7 -7 -7 -7 -7 -7 -7 -7 -7 -7 -7 -7 -7 -7 -7 -7 -7 -7 -7 -7 -7 -7 -7 -7 -7 -7 -7 -7 -7 -7 -7 -7 -7 -7 -7 -7 -7 -7 -7 -7 -7 -7 -7 -7 -7 -8 -8 -8 -8 -8 -8 -9 -9 -9 -9 -9
-8 -8 -8 -8 -7 -7 -7 -7 -7 -7 -7 -7 -7 -7 -7 -7 -7 -7 -7 -7 -7 -7 -7 -7 -7 -7 -7 -7 -7 -7 -7 -7 -7 -7 -7 -7 -7 -7 -7 -7 -7 -7 -7 -7 -7 -7 -7 -7 -7 -7 -7 -7 -7 -7 -7 -7 -7 -7 -7 -7 -7 -7 -7 -8 -8 -8 -8 -8 -8 -9 -9 -9 -9 -9
-8 -8 -8 -8 -8 -8 -8 -8 -8 -8 -8 -7 -7 -7 -7 -7 -7 -7 -7 -7 -7 -7 -7 -7 -7 -7 -7 -7 -7 -7 -7 -7 -7 -7 -7 -7 -7 -7 -7 -7 -7 -7 -7 -7 -7 -7 -7 -7 -7 -7 -7 -7 -7 -7 -7 -7 -7 -7 -7 -7 -7 -8 -8 -8 -8 -8 -8 -8 -8 -9 -9 -9 -9 -9
-8 -8 -8 -8 -8 -8 -8 -8 -8 -8 -8 -8 -8 -7 -7 -7 -7 -7 -7 -7 -7 -7 -7 -7 -8 -8 -8 -8 -8 -8 -8 -8 -8 -8 -8 -7 -7 -7 -7 -7 -7 -7 -7 -7 -7 -7 -7 -7 -7 -7 -7 -7 -7 -7 -8 -8 -8 -8 -8 -8 -8 -8 -8 -8 -8 -8 -8 -8 -8 -9 -9 -9 -9 -9
-8 -8 -8 -8 -8 -8 -8 -8 -8 -8 -8 -8 -8 -8 -8 -8 -8 -8 -8 -8 -8 -8 -8 -8 -8 -8 -8 -8 -8 -8 -8 -8 -8 -8 -8 -8 -8 -8 -8 -8 -8 -8 -8 -8 -8 -8 -8 -8 -8 -8 -8 -8 -8 -8 -8 -8 -8 -8 -8 -8 -8 -8 -8 -8 -8 -8 -8 -8 -8 -9 -9 -9 -9 -9
-8 -8 -8 -8 -8 -8 -8 -8 -8 -8 -8 -8 -8 -8 -8 -8 -8 -8 -8 -8 -8 -8 -8 -8 -8 -8 -8 -8 -8 -8 -8 -8 -8 -8 -8 -8 -8 -8 -8 -8 -8 -8 -8 -8 -8 -8 -8 -8 -8 -8 -8 -8 -8 -8 -8 -8 -8 -8 -8 -8 -8 -8 -8 -8 -8 -8 -8 -9 -9 -9 -9 -9 -9 -9
-8 -8 -8 -8 -8 -8 -8 -8 -8 -8 -8 -8 -8 -8 -8 -8 -8 -8 -8 -8 -8 -8 -8 -8 -8 -8 -8 -8 -8 -8 -8 -8 -8 -8 -8 -8 -8 -8 -8 -8 -8 -8 -8 -8 -8 -8 -8 -8 -8 -8 -8 -8 -8 -8 -8 -8 -8 -8 -8 -8 -8 -8 -8 -8 -8 -9 -9 -9 -9 -9 -9 -9 -9 -9
-8 -8 -8 -8 -8 -8 -8 -8 -8 -8 -8 -8 -8 -8 -8 -8 -8 -8 -8 -8 -8 -8 -8 -8 -8 -8 -8 -8 -8 -8 -8 -8 -8 -8 -8 -8 -8 -8 -8 -8 -8 -8 -8 -8 -8 -8 -8 -8 -8 -8 -8 -8 -8 -9 -9 -9 -9 -9 -9 -9 -9 -9 -9 -9 -9 -9 -9 -9 -9 -9 -9 -9 -9 -10
-8 -8 -8 -8 -8 -8 -8 -8 -8 -8 -8 -8 -8 -8 -8 -8 -8 -8 -8 -8 -9 -9 -9 -9 -9 -9 -9 -9 -9 -9 -9 -9 -9 -9 -8 -8 -8 -8 -9 -9 -9 -9 -9 -9 -9 -8 -8 -8 -8 -9 -9 -9 -9 -9 -9 -9 -9 -9 -9 -9 -9 -9 -9 -9 -9 -9 -9 -9 -9 -9 -9 -9 -10 -10
-9 -9 -8 -8 -8 -8 -8 -8 -8 -8 -8 -8 -8 -8 -8 -8 -8 -8 -8 -8 -8 -9 -9 -9 -9 -9 -9 -9 -9 -9 -9 -9 -9 -9 -9 -9 -9 -9 -9 -9 -9 -9 -9 -9 -9 -9 -9 -9 -9 -9 -9 -9 -9 -9 -9 -9 -9 -9 -9 -9 -9 -9 -9 -9 -9 -9 -9 -10 -10 -10 -10 -10 -10 -10
-9 -9 -9 -9 -9 -8 -8 -8 -8 -8 -8 -8 -8 -8 -8 -8 -8 -8 -9 -9 -9 -9 -9 -9 -9 -9 -9 -9 -9 -9 -9 -9 -9 -9 -9 -9 -9 -9 -9 -9 -9 -9 -9 -9 -9 -9 -9 -9 -9 -9 -9 -9 -9 -9 -9 -9 -9 -10 -10 -10 -10 -10 -10 -10 -10 -10 -10 -10 -10 -10 -10 -10 -10 -10
-9 -9 -9 -9 -9 -9 -9 -9 -8 -8 -8 -8 -8 -8 -8 -8 -8 -9 -9 -9 -9 -9 -9 -9 -9 -9 -9 -9 -9 -9 -9 -9 -9 -9 -9 -9 -9 -9 -9 -9 -9 -9 -9 -9 -9 -9 -9 -9 -9 -9 -9 -10 -10 -10 -10 -10 -10 -10 -10 -10 -10 -10 -10 -10 -10 -10 -10 -10 -10 -10 -10 -10 -10 -10
-9 -9 -9 -9 -9 -9 -9 -9 -9 -9 -9 -9 -9 -9 -8 -8 -8 -9 -9 -9 -9 -9 -9 -9 -9 -9 -9 -9 -9 -9 -9 -9 -9 -9 -9 -9 -9 -9 -9 -9 -9 -10 -10 -10 -10 -10 -10 -10 -10 -10 -10 -10 -10 -10 -10 -10 -10 -10 -10 -10 -10 -10 -10 -10 -10 -10 -10 -10 -10 -10 -10 -10 -10 -10
-10 -10 -10 -10 -10 -10 -9 -9 -9 -9 -9 -9 -9 -9 -9 -9 -9 -9 -9 -9 -9 -9 -9 -9 -9 -9 -9 -9 -9 -9 -9 -9 -9 -9 -9 -9 -9 -10 -10 -10 -10 -10 -10 -10 -10 -10 -10 -10 -10 -10 -10 -10 -10 -10 -10 -10 -10 -10 -10 -10 -10 -10 -10 -10 -10 -10 -10 -10 -10 -10 -10 -11 -11 -11
-10 -10 -10 -10 -10 -10 -10 -10 -10 -10 -9 -9 -9 -9 -9 -9 -9 -9 -9 -9 -9 -9 -9 -9 -9 -9 -9 -9 -9 -9 -9 -9 -9 -10 -10 -10 -10 -10 -10 -10 -10 -10 -10 -10 -10 -10 -10 -10 -10 -10 -10 -10 -10 -10 -10 -10 -10 -10 -10 -10 -11 -11 -11 -11 -11 -11 -11 -11 -11 -11 -11 -11 -11 -11
-11 -11 -11 -11 -11 -11 -10 -10 -10 -10 -10 -10 -10 -10 -9 -9 -9 -9 -9 -9 -9 -9 -9 -9 -9 -9 -10 -10 -10 -10 -9 -9 -10 -10 -10 -10 -10 -10 -10 -10 -10 -10 -10 -10 -10 -10 -10 -10 -10 -10 -10 -10 -10 -10 -10 -10 -10 -11 -11 -11 -11 -11 -11 -11 -11 -11 -11 -11 -11 -11 -11 -11 -11 -11
Height
5916 5916 5917 5917 5918 5918 5918 5918 5918 5918 5919 5919 5919 5919 5919 5919 5919 5919 5919 5919 5919 5920 5920 5920 5920 5920 5920 5919 5919 5919 5919 5919 5919 5919 5919 5919 5919 5918 5918 5918 5917 5917 5917 5916 5916 5916 5915 5915 5914 5914 5913 5913 5913 5912 5912 5912 5911 5911 5910 5910 5909 5909 5908 5908 5908 5907 5907 5907 5906 5906 5906 5905 5905 5905
5914 5914 5915 5915 5916 5917 5917 5917 5917 5917 5918 5918 5918 5918 5918 5918 5918 5918 5918 5918 5919 5919 5919 5919 5919 5919 5919 5919 5919 5918 5918 5919 5919 5919 5918 5918 5918 5918 5917 5917 5917 5916 5916 5916 5915 5915 5914 5914 5913 5912 5912 5911 5911 5911 5910 5910 5910 5909 5908 5908 5907 5907 5906 5906 5905 5905 5905 5904 5904 5904 5903 5903 5903 5902
5912 5912 5913 5913 5914 5914 5915 5915 5915 5916 5916 5917 5917 5917 5917 5917 5917 5917 5917 5917 5918 5918 5918 5918 5918 5918 5918 5918 5919 5918 5918 5918 5918 5918 5918 5917 5917 5916 5916 5916 5915 5915 5914 5914 5914 5913 5913 5912 5911 5911 5910 5910 5909 5909 5908 5908 5907 5907 5906 5906 5905 5905 5904 5904 5903 5903 5902 5902 5901 5901 5900 5900 5899 5899
5910 5910 5911 5911 5912 5913 5913 5914 5914 5914 5915 5915 5916 5916 5916 5916 5916 5916 5916 5915 5916 5917 5917 5917 5917 5916 5916 5917 5918 5918 5918 5917 5917 5917 5916 5916 5915 5915 5915 5914 5914 5913 5913 5912 5912 5911 5911 5910 5909 5909 5908 5908 5907 5907 5906 5906 5905 5905 5904 5904 5903 5903 5902 5902 5901 5900 5900 5899 5899 5898 5897 5897 5896 5896
5908 5908 5909 5909 5910 5911 5912 5912 5913 5913 5913 5914 5915 5915 5915 5915 5915 5915 5914 5914 5915 5916 5916 5915 5915 5915 5915 5916 5917 5917 5917 5916 5916 5915 5915 5914 5914 5914 5914 5913 5912 5911 5911 5910 5910 5909 5909 5908 5907 5907 5906 5906 5906 5905 5904 5903 5903 5902 5902 5901 5901 5900 5900 5899 5899 5898 5897 5897 5896 5895 5895 5894 5893 5892
5907 5907 5907 5908 5909 5910 5910 5911 5911 5912 5912 5913 5913 5914 5914 5914 5913 5913 5913 5913 5913 5914 5914 5914 5914 5914 5914 5915 5915 5915 5915 5914 5914 5914 5914 5913 5913 5913 5912 5911 5910 5910 5909 5908 5908 5907 5907 5906 5905 5905 5904 5904 5903 5903 5902 5901 5900 5900 5899 5899 5898 5898 5897 5897 5896 5896 5895 5894 5893 5893 5892 5891 5890 5889
5905 5905 5906 5906 5907 5908 5908 5909 5910 5910 5911 5911 5911 5912 5912 5912 5912 5912 5912 5912 5912 5912 5913 5913 5912 5913 5913 5913 5913 5913 5912 5912 5913 5913 5913 5912 5912 5911 5911 5910 5909 5908 5907 5907 5906 5905 5904 5904 5903 5902 5902 5901 5901 5900 5900 5899 5898 5897 5896 5896 5895 5895 5894 5894 5893 5893 5892 5891 5890 5889 5889 5888 5887 5886
5904 5904 5904 5905 5905 5906 5907 5908 5909 5909 5910 5910 5910 5910 5910 5910 5910 5910 5910 5911 5910 5910 5911 5911 5911 5911 5911 5911 5911 5911 5911 5911 5911 5911 5911 5911 5910 5910 5909 5908 5907 5906 5905 5904 5904 5903 5902 5901 5901 5900 5899 5899 5898 5898 5897 5896 5895 5894 5893 5893 5892 5891 5891 5891 5890 5890 5889 5888 5887 5886 5885 5884 5884 5883
5902 5902 5903 5903 5904 5904 5905 5906 5907 5908 5908 5908 5908 5908 5908 5908 5909 5909 5910 5910 5909 5909 5909 5909 5909 5910 5910 5909 5909 5909 5909 5909 5909 5909 5909 5909 5908 5908 5907 5906 5905 5904 5903 5902 5901 5900 5900 5899 5898 5897 5897 5896 5895 5894 5893 5893 5892 5891 5890 5890 5889 5889 5888 5888 5887 5886 5886 5885 5884 5883 5882 5881 5880 5879
5900 5901 5901 5902 5902 5903 5904 5904 5905 5906 5907 5907 5907 5907 5907 5907 5908 5908 5909 5909 5909 5909 5908 5908 5908 5908 5908 5907 5907 5907 5906 5906 5906 5906 5906 5906 5905 5905 5904 5904 5903 5901 5900 5899 5899 5898 5897 5896 5895 5895 5894 5893 5892 5891 5891 5890 5889 5888 5887 5887 5887 5886 5885 5885 5884 5883 5882 5881 5880 5879 5878 5877 5876 5875
5898 5899 5899 5900 5901 5902 5902 5903 5904 5905 5906 5906 5906 5906 5906 5906 5906 5907 5907 5908 5908 5908 5907 5907 5907 5907 5906 5905 5905 5905 5904 5904 5903 5903 5903 5902 5902 5902 5901 5900 5899 5898 5897 5897 5896 5895 5894 5894 5893 5892 5891 5890 5889 5888 5887 5887 5886 5886 5885 5884 5883 5883 5882 5881 5880 5879 5878 5877 5876 5875 5874 5873 5872 5871
5896 5897 5898 5899 5900 5900 5901 5902 5903 5904 5904 5904 5904 5904 5904 5905 5905 5905 5906 5906 5906 5906 5906 5905 5905 5905 5905 5904 5903 5903 5902 5902 5901 5901 5900 5900 5899 5899 5898 5897 5896 5895 5895 5894 5893 5892 5891 5891 5890 5888 5887 5886 5886 5885 5884 5883 5883 5883 5882 5881 5880 5879 5879 5878 5877 5876 5875 5874 5873 5871 5870 5869 5868 5867
5895 5896 5896 5897 5898 5898 5899 5900 5902 5902 5901 5901 5901 5902 5902 5903 5903 5903 5904 5905 5905 5905 5904 5903 5903 5903 5903 5902 5902 5901 5901 5900 5900 5899 5898 5898 5897 5897 5896 5894 5893 5893 5892 5892 5890 5889 5888 5888 5886 5885 5884 5883 5882 5881 5880 5880 5880 5879 5879 5878 5877 5876 5875 5874 5873 5872 5871 5870 5869 5868 5866 5865 5865 5864
5893 5894 5895 5896 5896 5896 5897 5899 5900 5900 5899 5898 5899 5900 5900 5901 5901 5902 5903 5903 5903 5903 5902 5902 5901 5901 5901 5901 5900 5899 5899 5898 5898 5897 5896 5895 5895 5894 5893 5892 5891 5891 5890 5889 5887 5886 5886 5885 5884 5882 5881 5880 5879 5878 5877 5877 5877 5876 5876 5875 5873 5872 5871 5870 5869 5868 5867 5866 5865 5864 5863 5862 5861 5860
5891 5892 5893 5894 5894 5895 5896 5897 5898 5898 5897 5897 5897 5898 5899 5899 5900 5900 5901 5901 5901 5901 5901 5900 5899 5899 5898 5899 5898 5898 5897 5896 5895 5895 5894 5893 5892 5892 5891 5889 5888 5888 5888 5887 5885 5884 5883 5883 5881 5879 5878 5877 5877 5876 5875 5875 5875 5873 5872 5871 5869 5868 5867 5866 5865 5864 5863 5862 5861 5859 5858 5858 5856 5855
5890 5890 5891 5892 5892 5893 5894 5895 5895 5895 5895 5895 5896 5896 5897 5898 5898 5898 5899 5899 5899 5899 5899 5898 5898 5897 5896 5896 5896 5895 5894 5893 5893 5892 5892 5891 5890 5889 5888 5887 5886 5885 5885 5885 5883 5882 5881 5880 5879 5877 5875 5875 5874 5873 5872 5872 5871 5870 5868 5866 5866 5865 5864 5863 5861 5860 5859 5858 5857 5855 5854 5854 5853 5851
5888 5888 5889 5890 5890 5891 5892 5893 5893 5894 5894 5894 5894 5895 5895 5896 5896 5897 5897 5897 5898 5898 5898 5897 5896 5895 5894 5893 5893 5892 5891 5891 5891 5890 5889 5889 5888 5887 5886 5885 5883 5882 5882 5882 5881 5879 5877 5877 5876 5874 5872 5871 5871 5870 5869 5868 5867 5866 5864 5863 5863 5862 5861 5859 5857 5856 5855 5854 5852 5851 5850 5850 5849 5848
5886 5886 5887 5887 5888 5889 5890 5891 5892 5892 5893 5893 5893 5893 5894 5894 5895 5895 5895 5896 5896 5896 5896 5895 5894 5893 5892 5891 5890 5890 5889 5888 5888 5888 5887 5886 5885 5884 5883 5882 5881 5880 5879 5879 5879 5877 5874 5872 5872 5870 5868 5867 5867 5866 5865 5864 5862 5861 5860 5859 5860 5859 5856 5855 5854 5853 5851 5850 5848 5848 5847 5846 5845 5844
5884 5884 5885 5886 5886 5887 5888 5889 5890 5890 5891 5891 5891 5891 5892 5892 5893 5893 5893 5894 5894 5894 5893 5893 5892 5891 5890 5889 5888 5887 5887 5886 5885 5884 5883 5883 5882 5882 5880 5879 5878 5877 5876 5875 5875 5874 5871 5868 5867 5866 5864 5864 5863 5862 5861 5859 5857 5856 5856 5855 5855 5855 5852 5851 5850 5849 5848 5846 5845 5844 5844 5842 5841 5840
5882 5883 5884 5884 5885 5885 5886 5887 5887 5888 5888 5889 5889 5889 5889 5890 5890 5890 5890 5891 5891 5891 5891 5890 5889 5888 5888 5887 5886 5885 5884 5883 5882 5881 5880 5880 5879 5878 5877 5875 5874 5874 5873 5872 5871 5871 5868 5865 5863 5862 5861 5860 5859 5858 5857 5855 5853 5852 5851 5850 5850 5849 5847 5846 5846 5845 5844 5843 5842 5841 5840 5839 5837 5836
5880 5881 5882 5883 5883 5883 5884 5884 5885 5885 5886 5886 5886 5887 5887 5887 5887 5888 5888 5888 5888 5888 5888 5887 5886 5886 5885 5884 5883 5882 5881 5880 5879 5879 5878 5877 5876 5875 5874 5872 5871 5870 5869 5868 5868 5867 5864 5862 5860 5859 5858 5857 5856 5855 5853 5851 5850 5849 5848 5847 5846 5845 5844 5843 5842 5841 5840 5839 5838 5837 5836 5835 5834 5833
5878 5879 5880 5881 5881 5881 5882 5882 5883 5883 5883 5884 5884 5884 5884 5884 5885 5885 5885 5885 5885 5885 5885 5884 5883 5883 5882 5881 5880 5879 5878 5878 5877 5876 5875 5874 5873 5872 5871 5869 5868 5867 5866 5865 5864 5863 5861 5859 5858 5857 5856 5854 5853 5851 5850 5848 5847 5845 5844 5844 5843 5842 5840 5840 5839 5838 5837 5836 5835 5834 5833 5832 5830 5829
5876 5877 5878 5879 5879 5879 5880 5880 5881 5881 5881 5881 5882 5882 5882 5882 5882 5882 5882 5882 5882 5882 5882 5881 5880 5880 5879 5878 5877 5876 5875 5875 5874 5873 5872 5871 5870 5868 5867 5866 5864 5863 5863 5862 5861 5859 5858 5857 5855 5854 5853 5852 5850 5848 5846 5845 5844 5843 5841 5840 5839 5838 5837 5836 5835 5835 5834 5833 5832 5830 5829 5828 5827 5825
5874 5875 5876 5877 5877 5877 5878 5878 5878 5879 5879 5879 5879 5880 5880 5880 5880 5880 5880 5880 5879 5879 5879 5878 5877 5876 5876 5875 5874 5873 5872 5871 5871 5870 5869 5868 5866 5865 5864 5862 5861 5861 5860 5859 5858 5857 5856 5854 5853 5852 5850 5849 5848 5846 5844 5843 5842 5841 5839 5837 5836 5835 5834 5833 5832 5831 5830 5829 5828 5827 5826 5824 5823 5822
5872 5873 5874 5874 5875 5875 5876 5876 5876 5876 5877 5877 5877 5877 5877 5877 5877 5877 5877 5877 5876 5876 5876 5875 5874 5873 5872 5872 5871 5869 5869 5868 5867 5867 5866 5865 5864 5862 5861 5860 5859 5858 5858 5857 5856 5855 5853 5852 5850 5849 5848 5847 5845 5844 5842 5840 5839 5838 5837 5835 5834 5832 5831 5831 5829 5828 5827 5826 5824 5823 5823 5821 5820 5819
5869 5870 5871 5872 5873 5873 5873 5873 5874 5874 5874 5874 5874 5874 5875 5874 5874 5874 5874 5874 5874 5873 5872 5872 5871 5870 5869 5868 5867 5866 5866 5865 5864 5863 5863 5862 5861 5860 5859 5858 5857 5856 5855 5854 5853 5852 5851 5849 5848 5847 5845 5844 5843 5841 5840 5838 5837 5836 5835 5833 5832 5830 5829 5828 5826 5825 5824 5823 5822 5820 5819 5818 5817 5816
5867 5868 5869 5869 5870 5870 5871 5871 5871 5871 5871 5871 5872 5872 5872 5871 5871 5871 5871 5871 5870 5870 5869 5869 5868 5867 5866 5865 5864 5864 5863 5862 5861 5860 5860 5859 5858 5857 5856 5855 5854 5853 5852 5852 5851 5849 5848 5847 5845 5844 5843 5841 5840 5839 5838 5836 5835 5833 5832 5831 5829 5828 5826 5825 5824 5822 5821 5820 5819 5818 5817 5815 5814 5813
5864 5865 5866 5867 5867 5868 5868 5868 5869 5869 5869 5869 5869 5869 5869 5869 5869 5868 5868 5868 5867 5867 5866 5866 5865 5864 5864 5863 5861 5861 5860 5859 5858 5857 5856 5856 5855 5854 5853 5853 5852 5851 5849 5848 5847 5846 5845 5844 5843 5841 5840 5839 5838 5836 5835 5834 5832 5831 5830 5828 5827 5825 5824 5822 5821 5820 5819 5818 5817 5816 5814 5812 5811 5810
5861 5862 5863 5863 5864 5865 5865 5866 5866 5866 5866 5867 5867 5867 5866 5866 5866 5866 5865 5865 5865 5864 5864 5863 5862 5861 5861 5860 5859 5858 5857 5856 5855 5854 5853 5852 5852 5851 5850 5849 5848 5847 5846 5845 5844 5843 5842 5841 5839 5838 5837 5836 5835 5833 5832 5831 5830 5829 5827 5826 5824 5823 5821 5820 5818 5817 5816 5815 5814 5813 5812 5811 5809 5808
5858 5859 5860 5861 5861 5862 5863 5863 5863 5864 5864 5864 5864 5864 5863 5863 5863 5863 5862 5862 5862 5861 5860 5860 5859 5858 5857 5856 5855 5854 5853 5852 5852 5851 5850 5849 5848 5847 5846 5846 5845 5844 5843 5842 5841 5840 5839 5837 5836 5835 5834 5833 5832 5830 5829 5828 5827 5826 5825 5823 5822 5820 5819 5817 5816 5815 5814 5812 5811 5810 5810 5808 5807 5806
5855 5856 5857 5858 5859 5859 5860 5860 5860 5861 5861 5861 5861 5860 5860 5860 5860 5859 5859 5858 5858 5857 5857 5856 5856 5855 5854 5853 5852 5851 5850 5849 5848 5847 5847 5846 5845 5844 5843 5842 5841 5841 5840 5839 5838 5837 5835 5834 5833 5832 5831 5830 5829 5827 5826 5825 5824 5822 5821 5820 5819 5817 5816 5814 5813 5812 5811 5809 5808 5807 5806 5806 5805 5804
5853 5853 5854 5855 5856 5856 5857 5857 5857 5858 5858 5858 5858 5857 5857 5857 5856 5856 5855 5855 5854 5853 5853 5852 5852 5851 5850 5850 5849 5848 5847 5845 5845 5844 5843 5842 5841 5840 5839 5839 5838 5837 5836 5836 5834 5833 5832 5831 5830 5828 5827 5826 5825 5824 5823 5821 5820 5819 5818 5817 5816 5814 5813 5811 5810 5809 5808 5806 5805 5804 5803 5803 5802 5801
5850 5851 5851 5852 5853 5853 5854 5854 5855 5855 5855 5855 5854 5854 5854 5854 5853 5853 5852 5851 5850 5850 5849 5848 5848 5847 5847 5846 5845 5844 5843 5842 5841 5840 5839 5838 5838 5837 5836 5835 5834 5834 5833 5832 5831 5830 5828 5827 5826 5825 5824 5823 5822 5820 5819 5818 5817 5816 5814 5813 5812 5811 5810 5808 5807 5806 5805 5804 5802 5801 5800 5799 5798 5797
5847 5848 5849 5849 5850 5851 5851 5851 5852 5852 5851 5851 5851 5851 5850 5850 5850 5849 5848 5848 5847 5846 5845 5845 5844 5844 5843 5843 5842 5841 5840 5839 5838 5837 5836 5835 5834 5833 5832 5831 5831 5830 5829 5828 5827 5825 5824 5823 5822 5821 5820 5819 5818 5817 5815 5814 5813 5812 5811 5810 5809 5808 5806 5805 5804 5803 5802 5800 5799 5798 5797 5796 5795 5793
5845 5846 5846 5847 5847 5848 5848 5849 5849 5848 5848 5848 5848 5847 5847 5846 5846 5845 5844 5844 5843 5842 5842 5841 5840 5840 5839 5839 5838 5837 5837 5836 5834 5833 5832 5831 5830 5829 5828 5828 5827 5826 5825 5824 5822 5821 5820 5819 5818 5817 5816 5815 5814 5813 5812 5811 5809 5808 5807 5806 5805 5804 5803 5802 5801 5800 5799 5797 5796 5795 5794 5792 5791 5790
5843 5843 5844 5844 5844 5845 5845 5845 5845 5845 5845 5845 5844 5844 5843 5842 5842 5841 5840 5840 5839 5839 5838 5838 5837 5836 5836 5835 5834 5834 5833 5832 5831 5830 5829 5828 5827 5825 5825 5824 5822 5821 5820 5819 5818 5817 5816 5815 5814 5813 5812 5811 5810 5809 5808 5807 5806 5805 5804 5803 5802 5800 5799 5798 5797 5796 5795 5794 5793 5792 5790 5789 5788 5787
5841 5841 5841 5841 5841 5842 5842 5842 5842 5842 5842 5841 5841 5840 5839 5839 5838 5837 5836 5836 5835 5835 5835 5834 5833 5833 5832 5831 5831 5830 5829 5828 5827 5826 5825 5824 5823 5822 5821 5819 5818 5817 5816 5815 5814 5813 5812 5811 5810 5809 5808 5807 5806 5805 5803 5802 5801 5800 5799 5798 5797 5796 5795 5794 5793 5792 5791 5790 5789 5788 5786 5785 5784 5783
5839 5839 5839 5839 5839 5839 5838 5839 5838 5838 5838 5838 5837 5837 5836 5835 5834 5834 5833 5832 5832 5831 5831 5831 5830 5829 5829 5828 5827 5826 5825 5824 5823 5822 5821 5820 5819 5817 5816 5815 5814 5813 5812 5811 5810 5809 5808 5807 5806 5805 5804 5803 5802 5800 5799 5798 5797 5796 5795 5794 5793 5792 5791 5790 5789 5788 5787 5786 5785 5784 5783 5781 5780 5779
5836 5836 5836 5836 5836 5835 5835 5835 5835 5835 5835 5834 5834 5833 5833 5832 5831 5831 5830 5829 5829 5828 5827 5827 5826 5825 5825 5824 5823 5822 5821 5820 5819 5818 5816 5815 5814 5813 5812 5810 5809 5808 5807 5806 5805 5805 5804 5803 5802 5801 5800 5798 5797 5796 5795 5794 5793 5791 5791 5789 5788 5788 5787 5786 5785 5784 5783 5782 5781 5780 5779 5778 5776 5775
5833 5833 5833 5833 5833 5832 5832 5832 5832 5831 5831 5831 5831 5830 5829 5829 5828 5827 5827 5826 5825 5824 5824 5823 5822 5821 5820 5819 5819 5818 5816 5815 5814 5813 5812 5811 5810 5808 5807 5806 5805 5804 5803 5802 5801 5800 5799 5798 5797 5796 5795 5794 5793 5791 5790 5789 5788 5787 5786 5785 5784 5783 5782 5781 5781 5780 5779 5778 5777 5776 5775 5774 5772 5771
5830 5830 5830 5830 5830 5829 5829 5829 5829 5828 5828 5827 5827 5827 5826 5825 5824 5823 5823 5822 5821 5820 5819 5819 5818 5817 5816 5815 5814 5813 5812 5811 5810 5809 5808 5806 5805 5804 5803 5802 5800 5799 5798 5797 5796 5795 5794 5793 5792 5791 5790 5789 5788 5787 5786 5785 5784 5783 5782 5781 5780 5779 5778 5777 5776 5775 5774 5773 5772 5772 5771 5769 5768 5767
5827 5827 5827 5827 5826 5826 5826 5826 5825 5825 5824 5824 5823 5823 5822 5822 5821 5820 5819 5818 5817 5816 5816 5815 5814 5813 5812 5811 5810 5809 5808 5807 5806 5804 5803 5802 5801 5800 5799 5797 5796 5795 5794 5793 5792 5791 5790 5789 5788 5787 5786 5785 5784 5783 5782 5781 5780 5779 5778 5777 5776 5775 5774 5773 5772 5771 5770 5769 5768 5767 5766 5765 5763 5762
5823 5823 5823 5823 5823 5823 5822 5822 5822 5821 5821 5820 5819 5819 5818 5818 5817 5816 5815 5814 5813 5812 5811 5810 5810 5809 5808 5807 5805 5804 5803 5802 5801 5800 5799 5798 5797 5796 5794 5793 5792 5791 5790 5788 5787 5786 5785 5784 5783 5782 5781 5780 5779 5778 5777 5776 5775 5774 5773 5772 5771 5770 5769 5768 5767 5766 5765 5764 5763 5763 5761 5760 5759 5758
5819 5819 5819 5819 5819 5819 5818 5818 5818 5817 5816 5816 5815 5814 5814 5813 5812 5812 5811 5810 5809 5808 5807 5806 5805 5804 5803 5802 5801 5800 5799 5798 5796 5795 5794 5794 5793 5791 5790 5789 5788 5786 5785 5784 5782 5781 5780 5779 5778 5777 5776 5775 5774 5773 5772 5771 5770 5769 5768 5767 5766 5765 5764 5763 5762 5761 5760 5760 5759 5758 5756 5755 5754 5753
5814 5814 5814 5814 5814 5814 5814 5814 5813 5813 5812 5811 5811 5810 5809 5808 5808 5807 5806 5805 5804 5804 5803 5801 5800 5799 5798 5797 5796 5795 5794 5793 5792 5791 5789 5789 5788 5787 5786 5784 5783 5781 5780 5778 5777 5776 5775 5774 5773 5772 5771 5770 5769 5768 5767 5765 5764 5764 5763 5762 5761 5760 5759 5757 5756 5756 5755 5754 5753 5752 5751 5750 5749 5748
Wind_Speed
13 14 14 15 15 15 16 16 15 14 13 13 13 12 12 11 10 10 10 10 10 9 9 10 10 10 10 10 10 10 11 11 11 12 12 12 12 13 12 12 12 13 13 14 14 14 15 15 15 15 16 17 17 17 18 18 19 19 19 19 19 20 20 21 21 21 22 22 22 23 23 23 24 24
15 15 16 16 16 16 17 18 17 16 15 15 15 14 14 13 13 13 12 12 11 11 11 11 12 12 11 12 12 12 12 12 13 13 13 14 14 14 14 14 14 14 14 15 15 15 15 15 16 16 16 17 17 18 19 19 20 20 21 21 21 21 22 22 23 23 24 24 24 25 25 25 26 26
16 17 17 18 18 17 18 18 18 17 17 16 16 16 16 15 14 15 15 14 12 12 13 13 13 14 13 12 13 13 14 14 14 14 14 15 15 15 14 14 14 14 14 15 15 16 15 15 16 16 16 17 17 18 19 20 20 21 21 22 22 23 23 24 24 25 25 25 26 26 27 27 27 27
18 18 18 18 18 18 18 18 18 18 18 18 17 17 17 16 15 16 16 16 13 13 14 15 15 16 15 14 14 14 14 15 16 16 16 16 16 16 15 15 15 15 15 15 15 15 15 15 15 16 16 16 17 17 18 19 19 20 21 22 23 23 24 25 25 26 26 27 27 27 27 27 28 28
18 18 19 18 18 18 18 18 19 19 19 19 18 17 17 17 16 16 17 17 15 13 14 15 16 17 17 17 16 15 15 16 17 17 17 17 17 16 16 16 17 17 17 17 16 16 15 15 16 16 16 17 17 17 18 19 19 20 21 21 22 23 24 24 25 26 27 28 28 28 29 29 29 29
19 19 19 18 17 17 19 19 19 20 20 19 18 17 17 17 17 17 17 17 17 15 14 15 16 16 16 16 16 16 17 17 17 18 18 19 18 18 17 17 18 19 20 19 18 18 18 18 18 18 18 18 18 19 19 20 20 21 21 22 22 22 23 24 25 25 26 27 28 29 29 30 30 31
18 19 19 18 17 18 19 19 19 20 20 19 19 18 17 17 17 17 17 18 18 18 16 15 15 15 15 15 16 17 18 19 19 19 19 19 20 19 19 18 19 19 20 20 19 20 20 21 21 21 21 21 22 22 23 23 23 23 23 23 23 24 24 25 26 26 27 27 28 28 29 30 31 31
18 19 19 18 18 18 19 19 19 19 19 19 20 19 18 18 18 18 18 18 18 18 18 17 16 16 16 16 17 18 18 19 20 20 20 19 19 19 19 19 19 19 19 19 20 21 21 22 22 23 23 23 24 25 25 25 25 25 24 24 25 25 25 26 26 27 27 28 28 29 29 30 30 31
18 19 20 19 18 18 19 19 18 18 18 19 19 20 20 19 19 18 17 18 19 19 19 18 17 17 17 18 18 18 19 19 20 20 19 19 19 19 18 18 19 20 20 21 21 21 22 23 23 23 24 24 25 25 25 26 26 26 27 27 27 27 27 27 28 29 29 30 30 30 30 30 31 32
18 19 20 20 19 19 19 19 18 18 18 18 19 20 20 20 20 19 18 18 18 19 19 19 19 18 18 18 18 18 18 19 20 19 19 19 19 19 19 19 19 20 21 21 21 22 22 23 23 23 24 25 25 26 26 26 26 27 28 28 28 29 29 30 31 31 32 32 31 31 32 32 33 33
18 19 20 21 20 19 19 19 18 17 17 17 18 19 19 19 19 19 19 18 18 18 19 19 19 19 18 18 18 18 18 19 20 19 19 19 19 19 20 21 21 22 22 22 22 23 23 23 23 24 24 25 26 26 26 26 26 27 27 28 29 29 30 30 31 31 31 31 32 32 33 34 34 35
19 20 21 21 20 19 18 17 16 16 17 18 18 18 18 19 19 19 19 18 18 18 18 18 19 18 19 19 18 18 18 18 19 19 18 19 19 19 20 22 22 22 22 23 24 24 24 24 24 25 26 26 27 27 27 27 27 27 27 27 28 29 29 29 29 29 30 31 32 33 32 33 34 34
19 20 21 20 19 18 17 16 15 16 18 18 18 18 18 18 19 19 18 18 17 17 18 18 19 19 20 19 18 17 17 17 17 18 19 19 19 19 20 21 22 22 22 22 23 24 24 24 25 25 26 26 27 27 28 27 27 27 26 27 27 28 28 28 29 29 30 31 31 32 32 33 33 33
19 19 19 19 18 18 16 15 15 16 17 17 16 17 18 18 18 18 18 18 18 18 19 18 18 19 19 19 18 18 17 17 17 18 19 21 21 20 21 22 23 22 22 22 23 24 24 24 25 26 26 27 27 27 28 27 27 26 26 27 27 28 28 29 29 29 29 30 30 32 32 33 32 31
18 18 19 18 18 17 16 15 15 15 15 14 14 16 17 17 17 18 17 17 16 16 15 15 16 18 19 19 19 18 18 18 18 18 19 21 22 22 22 24 24 23 22 22 24 25 24 24 25 27 27 27 27 28 28 27 27 27 28 28 28 29 29 29 29 29 29 30 31 32 32 31 30 31
18 18 18 18 17 16 15 15 14 14 14 13 14 15 15 15 15 15 14 13 13 13 12 13 14 17 18 19 17 17 17 18 18 19 20 20 21 22 23 24 24 24 23 22 23 25 25 25 26 27 28 28 28 28 28 28 27 28 29 29 29 29 29 29 29 30 30 31 32 32 31 29 30 31
18 18 17 16 15 14 14 14 13 13 14 13 13 13 13 12 12 11 11 11 12 12 12 12 13 15 17 18 17 18 19 19 19 19 20 20 21 21 22 23 24 24 23 22 22 24 25 25 25 26 27 27 26 27 28 27 27 28 29 29 28 28 28 29 30 30 31 31 32 32 31 29 29 30
18 17 16 14 14 13 13 13 13 13 12 11 11 11 10 10 11 11 11 12 12 12 12 13 14 15 17 18 18 19 20 20 20 20 20 20 21 21 22 23 23 24 23 22 21 22 25 25 24 24 26 26 25 26 27 28 28 28 29 29 28 28 29 30 30 30 31 32 32 32 32 31 31 30
16 15 14 13 12 12 11 11 11 10 10 9 10 10 10 11 11 12 12 12 12 13 13 14 15 16 17 19 19 20 21 21 21 21 21 21 21 21 22 23 23 23 22 21 20 20 23 25 24 24 25 25 25 26 26 27 27 27 27 28 27 28 29 30 29 30 31 32 31 31 31 32 32 31
13 12 12 11 11 10 10 10 9 9 10 10 11 11 11 12 12 13 13 13 13 13 14 15 16 17 18 19 20 21 21 21 21 21 22 22 21 21 21 22 22 21 21 21 20 19 21 23 24 24 24 24 24 25 25 26 26 26 26 26 26 27 29 30 29 29 30 32 32 32 32 32 32 32
11 11 11 11 11 10 10 10 10 11 11 11 12 12 12 13 13 13 14 14 14 14 15 16 17 18 19 20 21 21 21 21 21 21 21 21 21 20 20 21 21 20 21 20 19 18 19 21 23 23 23 24 24 24 24 25 25 25 24 24 25 26 27 28 28 29 30 31 32 34 34 34 34 33
10 10 10 11 11 11 11 11 12 12 13 13 13 14 14 14 14 14 14 15 15 16 16 17 18 19 20 21 22 22 21 20 20 21 21 20 20 19 19 19 19 20 20 19 18 17 18 20 22 22 22 23 23 24 24 24 24 25 24 24 24 25 27 27 28 28 29 30 32 34 35 36 35 35
9 9 10 11 12 12 12 13 13 14 14 14 14 15 15 15 15 15 15 16 16 17 18 18 19 20 21 22 22 22 21 20 20 20 20 19 19 19 18 17 18 19 19 19 18 18 19 20 21 22 22 22 23 24 25 24 23 24 24 24 24 25 26 28 28 29 30 31 32 33 33 34 34 34
10 10 11 12 13 14 14 15 15 15 16 16 16 16 16 16 15 15 16 16 17 18 18 19 20 21 22 22 22 22 21 20 20 20 20 19 18 18 17 16 17 18 18 18 18 18 19 20 21 21 22 22 22 23 24 24 23 23 23 24 24 24 25 26 28 29 30 31 31 31 31 31 32 32
11 12 13 13 14 15 15 16 17 17 17 17 17 16 16 15 16 16 16 16 17 18 19 20 21 22 22 23 23 22 22 21 20 20 19 19 18 17 16 16 16 16 17 18 18 18 19 20 20 20 21 21 21 22 23 23 23 22 22 22 23 24 25 25 26 27 28 29 29 29 29 29 30 30
12 13 14 15 16 16 17 18 18 18 18 17 16 15 15 15 15 15 16 16 17 18 19 20 21 21 22 23 22 22 22 21 21 20 19 18 18 17 16 15 15 16 16 17 18 19 19 20 20 20 20 21 21 21 22 22 22 22 22 22 22 23 24 24 25 25 26 27 28 28 28 28 29 29
14 15 16 16 17 17 18 18 18 17 17 16 15 15 15 15 15 16 16 17 18 19 19 20 21 21 22 22 22 22 21 21 20 19 19 18 17 17 16 16 15 16 16 17 19 19 20 20 20 20 20 20 20 20 21 21 21 21 22 22 22 22 23 23 24 24 25 26 26 27 27 27 28 28
15 15 16 16 16 16 17 17 16 16 16 15 15 16 16 17 17 17 18 19 20 20 20 21 21 22 23 23 22 21 21 20 20 19 19 18 18 17 17 16 16 16 17 18 19 20 21 21 21 21 20 20 20 20 20 20 20 20 21 21 21 21 22 22 23 23 24 24 25 25 25 25 26 26
14 14 14 14 14 15 15 15 15 15 15 16 16 17 18 19 19 20 21 21 22 22 22 22 22 23 23 23 23 22 21 20 19 19 19 19 19 18 18 18 18 19 19 20 21 21 21 21 21 21 21 20 20 19 19 19 20 20 20 20 20 20 21 21 22 22 22 23 23 23 23 23 23 23
13 13 12 13 13 13 14 14 15 16 16 17 18 19 20 21 21 22 23 23 24 24 24 23 24 24 24 24 23 22 21 20 20 19 19 20 20 20 20 20 21 21 22 22 23 23 22 22 22 22 22 22 21 20 20 20 19 19 19 19 19 20 20 21 21 22 22 22 22 23 23 22 22 21
11 11 12 12 13 14 15 15 16 17 18 19 20 21 22 22 23 24 25 25 25 25 25 25 25 25 25 25 24 23 22 21 21 20 20 20 21 21 22 22 22 23 23 24 24 24 23 23 23 23 23 23 22 22 21 21 20 20 20 20 20 20 20 21 21 22 22 22 22 23 23 23 22 22
10 10 11 12 13 14 15 16 17 18 19 20 21 22 23 24 24 25 26 27 27 28 27 27 26 26 26 25 25 25 24 23 22 22 22 22 22 22 23 23 24 24 24 25 25 24 24 24 24 24 24 24 23 23 23 23 22 22 21 21 21 21 21 21 21 22 22 22 23 23 24 24 24 23
9 10 10 11 12 14 15 16 17 19 20 21 22 23 23 24 24 25 26 27 27 28 28 28 27 26 26 25 25 25 25 25 24 24 24 24 24 24 25 25 26 26 26 26 26 25 25 25 25 25 25 25 24 24 24 24 23 23 23 23 22 22 22 22 22 22 22 23 23 23 24 25 25 25
10 11 12 13 14 15 16 17 18 19 20 21 22 22 23 23 23 24 25 26 27 27 28 28 28 27 26 26 26 26 26 26 26 26 26 26 26 26 27 27 27 27 27 27 27 26 26 26 26 26 26 25 25 24 25 25 25 24 24 24 24 23 23 23 23 23 23 23 24 24 24 25 25 26
12 13 13 14 15 16 17 18 19 20 20 21 21 22 23 23 24 24 25 25 26 27 28 28 28 28 27 27 27 27 27 27 28 27 27 27 28 28 28 28 28 28 28 27 27 27 27 27 27 26 26 26 26 25 25 25 26 25 25 25 25 25 24 24 24 24 24 24 24 24 24 25 25 25
14 14 15 16 16 17 18 19 19 20 20 21 21 22 23 24 24 25 25 25 26 26 27 28 29 29 29 28 28 28 28 28 28 28 28 28 28 29 29 29 29 29 28 28 27 27 27 27 27 27 27 26 26 26 26 26 26 26 26 26 26 26 26 25 25 25 25 25 24 24 24 25 25 25
16 16 16 17 17 18 18 18 19 19 20 20 21 22 22 23 24 25 25 25 26 26 27 27 28 28 28 28 28 28 28 28 28 28 29 29 30 30 30 30 29 29 28 28 27 27 27 27 27 27 27 26 26 27 27 27 27 27 27 27 26 26 27 26 26 25 25 25 25 25 25 25 25 25
17 17 17 17 18 18 18 18 18 19 19 20 20 21 22 23 24 24 25 25 26 27 27 28 28 28 29 29 29 29 30 30 31 31 31 32 31 31 31 30 30 29 28 28 28 28 27 27 27 27 27 27 27 27 27 28 28 27 27 27 27 27 27 28 27 27 26 26 26 26 26 26 26 25
19 18 18 18 18 19 19 19 19 19 19 20 20 21 22 22 23 23 24 25 25 26 27 27 28 29 30 31 31 32 32 32 32 32 32 31 31 31 30 30 29 29 29 28 28 28 28 28 28 28 27 27 28 28 28 29 29 29 28 28 28 28 28 28 28 28 28 27 27 26 26 26 27 26
20 20 20 20 21 21 21 21 21 21 21 21 22 23 23 23 23 23 23 24 25 25 26 27 28 29 30 31 32 32 32 32 31 31 30 30 30 30 29 29 29 29 29 29 29 29 29 29 29 28 28 28 29 29 29 30 30 30 30 29 29 29 29 29 29 29 29 28 28 27 27 27 28 28
22 22 21 21 22 22 22 23 23 23 24 24 25 25 25 25 24 24 24 24 25 26 26 27 28 28 29 30 30 31 31 31 31 31 30 30 30 29 29 29 29 29 29 29 29 29 29 29 29 29 29 29 29 30 30 30 31 31 31 30 30 30 30 30 30 30 30 30 29 28 28 29 29 29
26 25 25 24 24 24 24 24 25 25 26 27 27 27 27 27 26 26 26 26 26 26 27 28 29 29 29 30 30 30 31 31 31 31 31 31 30 30 29 29 29 30 30 30 30 30 30 29 29 29 29 30 30 30 30 31 31 32 32 31 31 30 30 31 31 32 32 31 31 30 30 30 31 31
31 30 30 28 27 27 27 26 26 26 27 27 28 29 29 29 29 29 28 28 28 28 28 29 30 31 32 32 32 32 32 32 32 32 32 31 31 31 30 30 30 30 30 30 30 30 30 30 29 29 29 30 30 30 30 30 31 32 32 32 32 32 31 32 32 33 33 33 32 32 32 32 32 32
34 34 34 33 32 31 30 29 28 28 28 28 29 30 30 31 31 31 31 30 30 30 30 31 32 33 33 34 34 34 33 33 33 33 33 32 32 32 32 32 32 32 31 31 31 31 30 30 30 30 30 30 30 30 30 30 31 32 32 33 33 33 33 33 33 34 34 34 34 34 34 34 34 33
36 36 37 37 35 34 32 30 29 29 29 30 30 31 31 32 32 33 33 33 33 32 32 33 33 34 35 35 35 35 35 35 35 35 35 34 34 33 33 33 33 33 33 33 33 32 31 31 31 31 31 31 31 31 31 32 32 32 33 33 34 34 34 35 35 35 35 35 35 35 35 35 35 35
Wind_Direction
229 232 235 237 238 240 242 242 241 242 245 251 257 262 266 268 271 271 270 269 268 268 268 269 270 273 274 274 274 274 275 277 278 278 278 277 276 276 277 279 282 286 288 289 289 289 289 289 289 288 288 288 287 287 287 287 287 287 287 287 288 287 287 287 286 286 285 284 284 284 284 283 283 283
229 231 234 235 236 237 241 243 243 243 244 248 254 260 265 269 274 276 277 279 282 285 287 287 287 287 288 288 288 288 288 287 286 285 284 283 282 281 281 283 286 288 289 290 291 291 290 290 289 288 288 288 287 287 287 286 286 286 285 285 285 285 285 285 285 285 285 285 285 285 285 284 284 283
230 232 234 236 236 236 239 243 245 246 246 248 253 260 265 270 276 281 282 285 289 294 296 297 295 292 291 290 291 293 295 295 293 291 289 286 285 284 283 284 285 287 288 289 290 290 290 289 289 289 289 288 288 287 287 287 287 286 286 285 285 284 284 283 283 283 284 284 284 284 284 283 283 283
231 234 235 237 238 239 240 243 247 250 250 250 253 259 265 271 276 282 285 286 287 292 295 295 295 294 292 291 291 293 295 295 294 293 290 287 285 285 285 285 285 286 287 287 288 288 288 288 289 289 289 288 287 287 287 287 287 287 286 286 285 284 284 284 283 283 284 284 283 283 283 283 283 283
235 236 237 238 240 243 245 247 250 253 255 255 256 260 264 269 273 277 281 282 281 283 287 289 290 292 294 295 296 296 293 290 289 289 291 290 290 289 288 287 285 284 284 284 285 286 287 288 290 290 288 287 287 287 287 288 288 287 287 286 286 286 286 286 285 285 285 284 284 284 284 284 283 283
240 240 240 240 240 243 246 247 250 253 256 258 259 260 262 265 269 271 272 274 275 274 276 281 286 290 294 297 297 295 291 288 287 288 290 292 292 292 291 290 287 284 283 283 284 284 285 286 288 288 286 287 288 289 290 290 290 290 289 288 288 288 287 287 287 287 286 286 286 286 285 285 284 284
244 245 245 244 242 243 245 247 249 253 256 259 261 260 260 261 264 267 268 270 273 275 276 279 283 287 290 291 291 290 289 290 291 292 291 290 290 291 291 291 289 288 286 285 283 283 283 284 284 283 283 286 288 289 289 290 291 291 290 288 287 286 286 286 287 287 287 287 287 287 287 288 288 288
245 248 248 246 245 246 248 249 250 253 256 258 261 260 260 260 260 262 266 270 274 278 280 281 282 283 284 284 284 285 287 289 290 290 289 288 288 288 288 288 288 288 286 284 283 283 284 284 283 282 282 285 287 288 287 287 288 288 287 286 285 286 287 287 286 286 286 287 288 288 289 289 289 289
245 248 249 248 248 250 253 253 252 253 255 257 260 263 263 263 263 264 266 269 272 276 279 281 281 281 280 280 281 283 285 286 287 287 288 287 286 285 284 284 284 283 282 282 282 284 284 284 283 283 283 285 286 286 287 287 288 288 288 287 287 288 289 290 290 290 289 290 290 291 291 290 289 288
242 246 248 248 249 250 252 253 253 253 255 258 262 265 267 269 270 271 272 272 274 276 279 281 281 281 281 281 282 283 285 285 286 289 290 289 285 283 283 281 278 277 278 279 282 284 284 283 283 283 284 284 285 286 287 288 288 289 289 289 289 290 290 291 292 292 291 291 292 292 293 293 292 291
242 244 246 247 248 250 251 252 254 256 258 260 262 265 268 271 272 274 277 278 279 280 280 281 282 282 283 282 283 284 285 285 287 290 290 288 287 287 285 281 277 275 275 277 280 283 284 285 286 285 285 284 285 286 287 287 288 288 288 289 289 290 290 291 291 291 291 290 291 292 293 293 292 294
244 244 245 246 248 252 254 256 260 262 261 260 261 264 267 268 269 272 276 279 280 280 279 280 282 284 284 284 285 285 285 287 289 290 290 289 290 289 287 283 281 278 277 278 281 283 284 285 286 286 286 287 288 289 289 290 290 290 290 291 291 290 290 290 290 290 290 290 291 293 294 294 294 296
245 246 246 247 250 253 257 261 263 262 260 259 262 265 267 267 267 269 273 276 276 276 275 276 278 281 283 285 287 288 288 288 288 290 290 290 290 290 289 287 285 283 283 284 285 285 285 286 285 286 286 288 289 290 290 292 293 293 294 293 292 291 291 290 290 290 290 291 292 293 294 295 296 297
247 249 248 249 251 256 262 266 264 261 260 262 265 267 268 268 269 271 273 275 276 275 275 275 275 276 279 283 286 287 288 288 287 287 288 289 290 292 292 288 286 286 288 288 287 286 287 288 287 287 286 287 288 288 288 290 291 292 293 293 292 291 291 290 290 290 290 291 292 293 294 296 297 298
247 249 249 249 251 257 263 265 262 261 264 268 270 269 270 271 274 276 277 278 279 279 279 279 276 275 277 280 283 284 286 286 286 285 285 287 289 291 290 288 287 288 289 288 288 288 290 290 289 288 288 287 287 286 287 289 291 291 290 289 289 289 289 290 289 289 290 291 293 294 295 298 299 298
247 248 248 249 251 254 258 260 262 265 267 268 268 269 272 275 275 276 276 276 276 276 276 275 274 274 277 279 282 283 284 284 285 286 286 287 287 287 287 288 289 290 290 290 290 291 291 291 289 288 288 288 288 288 289 291 291 290 288 287 287 288 289 288 288 288 290 292 293 294 295 296 296 296
246 247 249 250 251 253 256 260 264 266 267 268 269 270 274 277 276 274 274 273 273 273 273 273 272 274 278 281 284 285 286 287 288 289 289 289 287 287 287 289 289 290 292 292 292 292 291 290 290 290 291 292 293 294 294 293 291 289 287 287 288 289 289 287 287 288 289 290 290 290 293 293 293 293
243 246 249 251 253 257 260 263 265 267 269 273 276 277 278 281 282 281 279 277 275 273 273 273 273 274 278 282 284 286 288 291 292 292 291 289 288 289 290 291 291 292 294 295 295 293 291 292 293 293 295 297 299 299 298 295 293 291 289 288 289 289 288 286 286 287 286 285 285 286 289 292 292 292
240 244 248 252 255 257 259 260 263 267 271 273 276 279 279 280 280 278 277 274 271 270 271 273 274 275 278 281 284 286 288 290 292 292 291 291 292 293 294 293 293 295 298 299 299 296 293 295 296 296 298 301 302 301 299 297 296 295 293 290 289 288 286 284 284 285 285 284 283 283 286 289 290 290
236 240 243 246 247 249 251 254 258 262 264 267 270 273 275 276 275 274 273 272 271 271 274 276 277 278 280 281 284 285 287 288 289 291 292 293 295 296 295 295 296 300 303 304 304 301 296 295 298 301 304 305 304 303 301 300 299 300 298 294 290 288 286 284 284 285 284 284 283 283 285 287 288 287
230 232 234 238 241 245 250 255 258 260 263 266 270 272 273 273 273 273 273 273 274 276 278 279 280 281 282 283 285 286 287 287 288 289 290 292 294 294 294 296 302 307 310 309 310 308 303 302 305 308 310 310 308 305 304 304 304 304 303 300 295 291 290 289 288 288 287 285 284 284 285 285 285 284
230 233 239 245 250 254 258 260 263 266 269 270 272 273 273 273 273 273 274 276 277 278 280 281 282 283 284 285 286 287 286 286 287 288 289 291 293 294 296 302 309 313 315 317 319 317 313 312 314 314 315 314 312 309 308 308 308 308 307 307 304 298 295 292 291 290 289 288 287 287 286 286 285 284
243 248 253 258 261 263 265 268 270 272 273 274 274 274 274 274 274 275 277 279 280 281 283 284 285 287 288 289 289 288 287 286 287 288 290 292 294 296 301 308 314 317 319 322 325 324 320 319 320 320 319 318 315 312 312 313 313 312 311 310 308 305 301 298 295 293 292 291 291 290 289 287 286 285
257 261 263 265 269 271 273 276 277 278 278 277 277 276 275 276 277 279 281 282 283 285 287 288 290 291 292 293 293 291 290 289 290 291 292 293 295 298 304 310 314 317 320 323 324 324 322 321 321 322 322 321 318 315 315 315 316 315 314 312 310 308 306 304 301 299 298 297 297 296 293 290 288 286
263 266 269 271 273 274 276 277 277 277 277 276 275 275 275 278 280 283 284 285 286 288 291 292 293 294 296 296 295 293 292 292 293 293 293 294 296 299 303 307 310 312 316 319 320 321 320 319 320 322 322 321 320 318 317 317 317 317 316 314 312 312 311 309 306 305 303 302 301 299 296 293 290 288
268 271 273 275 277 277 278 277 276 276 276 275 274 274 276 279 281 284 286 287 289 291 293 294 294 295 296 296 295 294 293 293 294 294 294 295 297 299 300 303 305 308 311 314 316 318 318 317 318 319 319 319 319 318 317 317 318 318 318 317 316 316 315 313 311 309 308 305 303 301 299 296 294 292
272 275 276 278 279 279 279 278 278 278 277 276 276 277 279 281 283 286 288 289 291 291 292 293 293 293 293 294 294 293 293 293 294 295 295 295 296 297 298 300 303 306 309 312 314 316 316 316 315 315 315 316 316 315 315 315 316 317 318 318 318 318 316 315 314 313 313 310 308 307 305 303 301 299
273 276 277 279 279 279 278 278 278 278 277 277 278 280 282 283 285 287 288 290 291 291 291 291 291 291 291 292 292 292 292 293 295 295 295 294 294 296 297 299 301 303 306 309 312 313 314 313 312 311 311 311 311 311 311 312 313 314 315 316 317 317 316 316 316 316 315 314 313 312 310 308 307 306
270 273 275 277 277 277 278 279 279 279 279 280 282 283 284 285 286 287 287 288 289 289 289 289 289 289 289 289 290 291 292 294 295 296 296 296 297 298 299 300 300 301 302 305 308 309 310 310 309 308 307 306 306 306 306 307 308 309 311 312 314 315 316 316 316 316 316 315 314 314 313 313 313 314
265 268 271 274 276 278 279 281 282 283 284 285 286 286 286 286 286 286 286 286 287 287 287 287 287 287 287 288 288 290 291 293 295 296 298 299 300 301 301 301 300 300 301 303 304 305 306 306 306 305 304 302 302 302 302 303 304 305 307 309 311 313 314 314 315 315 315 314 314 313 313 313 314 315
262 267 271 275 277 280 282 284 285 286 287 287 286 286 285 285 285 284 283 282 282 283 284 285 286 287 287 288 288 288 290 292 294 296 298 299 300 300 301 301 301 301 302 302 303 304 304 304 304 303 302 301 300 300 300 301 302 302 304 306 308 309 310 312 313 313 313 312 311 311 310 310 310 311
262 267 272 276 280 283 286 288 289 289 289 289 288 287 286 285 284 283 282 282 282 283 284 286 287 288 289 289 289 289 290 292 294 296 297 297 298 299 299 300 301 302 302 303 303 304 304 303 302 301 300 299 299 298 299 299 300 300 301 302 303 305 306 307 309 310 310 310 309 308 307 306 305 305
259 265 271 277 281 285 288 289 290 290 290 290 290 290 289 288 287 286 285 284 284 285 286 287 288 289 289 289 289 290 291 293 294 295 296 296 297 297 298 299 300 300 301 302 302 303 303 303 302 300 299 299 298 297 297 297 297 297 297 297 299 300 302 304 306 307 307 307 306 306 305 305 303 301
261 267 272 276 280 284 286 288 289 290 290 291 291 292 293 293 293 292 291 289 288 286 286 287 288 289 288 288 288 289 290 291 292 293 295 296 297 297 298 299 299 300 300 301 302 303 303 302 301 300 298 298 296 295 294 293 293 293 294 295 296 297 299 301 303 305 306 306 306 306 305 304 302 300
263 267 271 275 278 282 285 287 289 290 290 291 291 292 293 294 295 295 295 294 293 291 289 288 288 289 289 288 288 289 289 290 292 293 294 295 296 297 298 299 300 301 302 303 304 304 303 301 299 298 297 296 295 294 292 291 291 291 291 292 293 294 296 298 301 303 304 304 304 305 304 302 301 301
266 269 272 275 278 281 284 286 288 290 292 293 294 295 295 296 296 296 296 296 295 294 293 291 290 289 289 289 289 289 290 291 292 293 295 296 297 298 299 300 301 302 303 304 304 303 302 300 298 297 296 295 294 293 291 290 289 289 289 290 290 292 293 295 298 300 301 301 302 303 302 301 301 301
270 272 275 277 280 281 283 285 287 289 292 294 296 298 299 300 300 300 300 299 298 297 296 295 293 292 291 291 291 291 292 293 294 295 296 297 297 297 298 299 300 300 301 301 300 299 298 297 296 295 294 293 292 291 290 289 288 287 288 288 289 290 291 292 294 296 297 298 299 299 300 300 300 300
271 273 276 278 281 283 285 286 287 288 290 293 297 299 301 302 303 303 302 301 300 298 296 295 294 293 292 291 291 291 291 292 293 293 294 294 294 295 295 295 296 297 297 297 296 295 295 294 294 294 293 292 291 290 288 288 288 287 287 288 288 288 288 289 290 292 293 294 295 295 297 298 298 298
273 275 277 280 283 287 289 290 290 289 290 293 296 299 301 302 302 302 301 300 299 298 296 295 293 292 291 290 289 289 290 290 290 291 291 291 292 292 292 293 294 294 294 294 294 293 293 293 293 293 293 291 290 289 288 288 288 288 288 288 287 287 287 287 288 289 290 291 291 293 294 295 295 295
277 279 281 283 285 288 290 291 291 292 293 295 297 299 300 300 300 300 300 300 299 299 297 296 295 294 292 292 291 290 290 290 290 290 291 291 291 292 292 293 293 293 292 292 292 292 292 293 293 293 292 291 290 289 289 289 289 289 289 289 289 288 288 287 287 287 288 288 289 290 292 292 292 292
278 281 283 285 287 288 289 290 291 292 293 294 296 298 299 300 301 301 302 302 301 300 299 298 296 295 295 294 293 292 292 291 291 290 291 291 292 292 292 292 292 291 291 291 291 291 292 292 292 292 292 292 291 291 290 290 290 290 290 290 290 290 289 289 288 287 287 287 288 289 289 289 289 289
277 279 281 283 285 286 287 289 290 291 292 293 294 296 297 299 301 302 302 302 301 300 298 297 296 296 295 295 294 293 292 291 290 290 290 291 291 291 290 290 290 290 290 290 290 290 291 291 292 292 292 292 292 292 292 291 291 291 291 291 291 291 290 290 288 287 286 286 287 287 287 287 287 287
276 277 278 280 282 284 285 285 286 288 291 292 293 294 295 296 297 299 299 300 299 299 297 295 295 294 294 295 295 294 293 291 291 290 290 290 290 289 289 289 289 289 289 289 289 289 290 290 291 291 292 292 292 292 291 291 291 292 292 292 292 291 290 289 288 287 287 287 287 287 287 286 286 287
277 276 277 278 280 281 282 283 284 285 288 290 292 293 294 294 295 296 296 297 297 297 296 295 294 293 293 294 294 294 294 293 291 290 290 289 289 289 289 289 289 288 288 288 288 288 289 290 291 291 292 292 291 290 290 290 290 290 291 292 292 292 292 290 289 288 288 288 288 288 287 286 286 286
280 278 276 276 278 280 281 282 284 285 287 288 290 291 293 293 294 294 294 295 295 295 295 294 294 293 292 293 293 294 294 293 292 291 290 289 289 288 288 288 288 289 289 289 289 291 292 292 292 292 292 292 291 290 290 289 288 289 290 290 291 292 292 291 290 289 289 289 288 287 286 286 286 286